Time,TemperatureF,DewpointF,PressureIn,WindDirection,WindDirectionDegrees,WindSpeedMPH,WindSpeedGustMPH,Humidity,HourlyPrecipIn,Conditions,Clouds,dailyrainin,SoftwareType,DateUTC
2013-03-01 00:02:00,29.0,28.0,-100.00,South,174,2.0,2.0,98,0.01,,,0.18,,2013-03-01 05:02:00,
2013-03-01 00:11:00,29.0,28.0,-100.00,South,174,2.0,2.0,98,0.01,,,0.18,,2013-03-01 05:11:00,
2013-03-01 00:22:00,29.0,29.0,-100.00,South,184,1.0,2.0,99,0.03,,,0.17,,2013-03-01 05:22:00,
2013-03-01 00:33:00,29.0,29.0,-100.00,South,184,1.0,2.0,99,0.03,,,0.17,,2013-03-01 05:33:00,
2013-03-01 00:42:00,29.0,29.0,-100.00,South,184,1.0,2.0,99,0.03,,,0.17,,2013-03-01 05:42:00,
2013-03-01 01:02:00,29.0,29.0,-100.00,South,181,1.0,2.0,100,0.01,,,0.17,,2013-03-01 06:02:00,
2013-03-01 01:12:00,29.0,29.0,-100.00,South,181,1.0,2.0,100,0.01,,,0.17,,2013-03-01 06:12:00,
2013-03-01 01:22:00,29.0,29.0,-100.00,SE,144,1.0,2.0,100,0.00,,,0.17,,2013-03-01 06:22:00,
2013-03-01 01:32:00,29.0,29.0,-100.00,SE,144,1.0,2.0,100,0.00,,,0.17,,2013-03-01 06:32:00,
2013-03-01 01:42:00,29.0,29.0,-100.00,South,171,1.0,2.0,100,0.00,,,0.16,,2013-03-01 06:42:00,
2013-03-01 01:53:00,29.0,29.0,-100.00,SE,128,0.0,2.0,100,0.00,,,0.15,,2013-03-01 06:53:00,
2013-03-01 02:02:00,29.0,29.0,-100.00,SE,128,0.0,2.0,100,0.00,,,0.15,,2013-03-01 07:02:00,
2013-03-01 02:12:00,29.0,29.0,-100.00,SE,128,0.0,2.0,100,0.00,,,0.15,,2013-03-01 07:12:00,
2013-03-01 02:22:00,29.0,29.0,-100.00,SSW,193,0.0,1.0,100,0.00,,,0.15,,2013-03-01 07:22:00,
2013-03-01 02:32:00,29.0,29.0,-100.00,SSW,193,0.0,1.0,100,0.00,,,0.15,,2013-03-01 07:32:00,
2013-03-01 02:42:00,29.0,29.0,-100.00,WSW,248,1.0,2.0,100,0.00,,,0.15,,2013-03-01 07:42:00,
2013-03-01 02:52:00,29.0,29.0,-100.00,WSW,248,1.0,2.0,100,0.00,,,0.15,,2013-03-01 07:52:00,
2013-03-01 03:02:00,29.0,29.0,-100.00,SSW,213,2.0,3.0,100,0.00,,,0.15,,2013-03-01 08:02:00,
2013-03-01 03:12:00,29.0,29.0,-100.00,SSW,213,2.0,3.0,100,0.00,,,0.15,,2013-03-01 08:12:00,
2013-03-01 03:22:00,29.0,29.0,-100.00,WNW,287,1.0,1.0,100,0.00,,,0.15,,2013-03-01 08:22:00,
2013-03-01 03:32:00,29.0,29.0,-100.00,WNW,287,1.0,1.0,100,0.00,,,0.15,,2013-03-01 08:32:00,
2013-03-01 03:43:00,29.0,29.0,-100.00,SE,133,0.0,1.0,100,0.00,,,0.15,,2013-03-01 08:43:00,
2013-03-01 03:53:00,29.0,29.0,-100.00,SSE,150,0.0,1.0,100,0.01,,,0.15,,2013-03-01 08:53:00,
2013-03-01 04:02:00,29.0,29.0,-100.00,SSE,150,0.0,1.0,100,0.01,,,0.15,,2013-03-01 09:02:00,
2013-03-01 04:12:00,29.0,29.0,-100.00,SSE,150,0.0,1.0,100,0.01,,,0.15,,2013-03-01 09:12:00,
2013-03-01 04:22:00,29.0,29.0,-100.00,South,169,1.0,2.0,100,0.01,,,0.15,,2013-03-01 09:22:00,
2013-03-01 04:32:00,29.0,29.0,-100.00,South,169,1.0,2.0,100,0.01,,,0.15,,2013-03-01 09:32:00,
2013-03-01 04:42:00,29.0,29.0,-100.00,SSE,160,0.0,1.0,100,0.00,,,0.15,,2013-03-01 09:42:00,
2013-03-01 04:53:00,29.0,29.0,-100.00,SSE,160,0.0,1.0,100,0.00,,,0.15,,2013-03-01 09:53:00,
2013-03-01 05:02:00,29.0,29.0,-100.00,SE,126,0.0,1.0,100,0.00,,,0.15,,2013-03-01 10:02:00,
2013-03-01 05:12:00,29.0,29.0,-100.00,SE,126,0.0,1.0,100,0.00,,,0.15,,2013-03-01 10:12:00,
2013-03-01 05:22:00,29.0,29.0,-100.00,SW,217,0.0,2.0,100,0.01,,,0.16,,2013-03-01 10:22:00,
2013-03-01 05:32:00,29.0,29.0,-100.00,SW,217,0.0,2.0,100,0.01,,,0.16,,2013-03-01 10:32:00,
2013-03-01 05:42:00,29.0,29.0,-100.00,SW,217,0.0,2.0,100,0.01,,,0.16,,2013-03-01 10:42:00,
2013-03-01 05:53:00,29.0,29.0,-100.00,SSW,213,1.0,1.0,100,0.06,,,0.17,,2013-03-01 10:53:00,
2013-03-01 06:02:00,29.0,29.0,-100.00,SSW,208,1.0,1.0,100,0.06,,,0.18,,2013-03-01 11:02:00,
2013-03-01 06:12:00,29.0,29.0,-100.00,SSW,208,1.0,1.0,100,0.06,,,0.18,,2013-03-01 11:12:00,
2013-03-01 06:23:00,29.0,29.0,-100.00,SW,220,0.0,1.0,100,0.00,,,0.20,,2013-03-01 11:23:00,
2013-03-01 06:32:00,29.0,29.0,-100.00,SW,220,0.0,1.0,100,0.00,,,0.20,,2013-03-01 11:32:00,
2013-03-01 06:42:00,29.0,29.0,-100.00,SW,220,2.0,5.0,100,0.06,,,0.22,,2013-03-01 11:42:00,
2013-03-01 06:53:00,29.0,29.0,-100.00,SW,220,2.0,5.0,100,0.06,,,0.22,,2013-03-01 11:53:00,
2013-03-01 07:02:00,29.0,29.0,-100.00,SSE,155,1.0,2.0,100,0.06,,,0.22,,2013-03-01 12:02:00,
2013-03-01 07:11:00,29.0,29.0,-100.00,SSE,155,1.0,2.0,100,0.06,,,0.22,,2013-03-01 12:11:00,
2013-03-01 07:22:00,29.0,29.0,-100.00,ESE,112,1.0,2.0,100,0.00,,,0.21,,2013-03-01 12:22:00,
2013-03-01 07:32:00,29.0,29.0,-100.00,SSW,208,0.0,1.0,100,0.00,,,0.21,,2013-03-01 12:32:00,
2013-03-01 07:42:00,29.0,29.0,-100.00,SSW,208,0.0,1.0,100,0.00,,,0.21,,2013-03-01 12:42:00,
2013-03-01 07:52:00,29.0,29.0,-100.00,SSW,208,0.0,1.0,100,0.00,,,0.21,,2013-03-01 12:52:00,
2013-03-01 08:01:00,29.0,29.0,-100.00,WSW,240,0.0,1.0,100,0.00,,,0.20,,2013-03-01 13:01:00,
2013-03-01 08:12:00,29.0,29.0,-100.00,WSW,240,0.0,1.0,100,0.00,,,0.20,,2013-03-01 13:12:00,
2013-03-01 08:22:00,29.0,29.0,-100.00,SSW,208,1.0,2.0,100,0.00,,,0.19,,2013-03-01 13:22:00,
2013-03-01 08:32:00,29.0,29.0,-100.00,SSW,206,1.0,2.0,100,0.01,,,0.18,,2013-03-01 13:32:00,
2013-03-01 08:42:00,29.0,29.0,-100.00,SSW,206,1.0,2.0,100,0.01,,,0.18,,2013-03-01 13:42:00,
2013-03-01 08:52:00,29.0,29.0,-100.00,SSW,206,1.0,2.0,100,0.01,,,0.18,,2013-03-01 13:52:00,
2013-03-01 09:02:00,29.0,29.0,-100.00,SSW,198,1.0,2.0,100,0.00,,,0.18,,2013-03-01 14:02:00,
2013-03-01 09:12:00,29.0,29.0,-100.00,SSW,198,1.0,2.0,100,0.00,,,0.18,,2013-03-01 14:12:00,
2013-03-01 09:22:00,29.0,29.0,-100.00,South,191,1.0,2.0,100,0.00,,,0.18,,2013-03-01 14:22:00,
2013-03-01 09:32:00,29.0,29.0,-100.00,South,191,1.0,2.0,100,0.00,,,0.18,,2013-03-01 14:32:00,
2013-03-01 09:42:00,30.0,30.0,-100.00,South,174,1.0,1.0,100,0.00,,,0.18,,2013-03-01 14:42:00,
2013-03-01 09:52:00,30.0,30.0,-100.00,South,174,1.0,1.0,100,0.00,,,0.18,,2013-03-01 14:52:00,
2013-03-01 10:02:00,30.0,30.0,-100.00,SSE,162,0.0,1.0,100,0.00,,,0.18,,2013-03-01 15:02:00,
2013-03-01 10:11:00,30.0,30.0,-100.00,SSE,162,0.0,1.0,100,0.00,,,0.18,,2013-03-01 15:11:00,
2013-03-01 10:21:00,30.0,30.0,-100.00,SSW,195,0.0,1.0,100,0.04,,,0.19,,2013-03-01 15:21:00,
2013-03-01 10:32:00,30.0,30.0,-100.00,SSW,195,0.0,1.0,100,0.04,,,0.19,,2013-03-01 15:32:00,
2013-03-01 10:42:00,30.0,30.0,-100.00,SSE,150,1.0,2.0,100,0.03,,,0.20,,2013-03-01 15:42:00,
2013-03-01 10:52:00,30.0,30.0,-100.00,SSE,150,1.0,2.0,100,0.03,,,0.20,,2013-03-01 15:52:00,
2013-03-01 11:01:00,30.0,30.0,-100.00,SW,215,1.0,2.0,100,0.01,,,0.21,,2013-03-01 16:01:00,
2013-03-01 11:11:00,30.0,30.0,-100.00,SW,215,1.0,2.0,100,0.01,,,0.21,,2013-03-01 16:11:00,
2013-03-01 11:22:00,31.0,31.0,-100.00,SE,133,1.0,1.0,100,0.01,,,0.22,,2013-03-01 16:22:00,
2013-03-01 11:32:00,31.0,31.0,-100.00,SE,133,1.0,1.0,100,0.01,,,0.22,,2013-03-01 16:32:00,
2013-03-01 11:42:00,31.0,31.0,-100.00,SSE,158,0.0,1.0,100,0.00,,,0.22,,2013-03-01 16:42:00,
2013-03-01 11:52:00,31.0,31.0,-100.00,SSE,158,0.0,1.0,100,0.00,,,0.22,,2013-03-01 16:52:00,
2013-03-01 12:01:00,31.0,31.0,-100.00,SSE,164,1.0,2.0,100,0.03,,,0.22,,2013-03-01 17:01:00,
2013-03-01 12:11:00,31.0,31.0,-100.00,SSE,164,1.0,2.0,100,0.03,,,0.22,,2013-03-01 17:11:00,
2013-03-01 12:21:00,31.0,31.0,-100.00,SSE,158,1.0,2.0,100,0.00,,,0.22,,2013-03-01 17:21:00,
2013-03-01 12:32:00,31.0,31.0,-100.00,SSE,158,1.0,2.0,100,0.00,,,0.22,,2013-03-01 17:32:00,
2013-03-01 12:42:00,32.0,32.0,-100.00,NE,35,2.0,2.0,100,0.07,,,0.24,,2013-03-01 17:42:00,
2013-03-01 12:52:00,32.0,32.0,-100.00,NE,35,2.0,2.0,100,0.07,,,0.24,,2013-03-01 17:52:00,
2013-03-01 13:02:00,31.0,31.0,-100.00,ENE,64,4.0,5.0,100,0.00,,,0.26,,2013-03-01 18:02:00,
2013-03-01 13:12:00,31.0,31.0,-100.00,ENE,64,4.0,5.0,100,0.00,,,0.26,,2013-03-01 18:12:00,
2013-03-01 13:22:00,31.0,31.0,-100.00,ESE,104,2.0,4.0,100,0.00,,,0.28,,2013-03-01 18:22:00,
2013-03-01 13:32:00,31.0,31.0,-100.00,ESE,104,2.0,4.0,100,0.00,,,0.28,,2013-03-01 18:32:00,
2013-03-01 13:42:00,32.0,32.0,-100.00,ESE,109,3.0,4.0,100,0.00,,,0.28,,2013-03-01 18:42:00,
2013-03-01 13:52:00,32.0,32.0,-100.00,ESE,109,3.0,4.0,100,0.00,,,0.28,,2013-03-01 18:52:00,
2013-03-01 14:02:00,33.0,33.0,-100.00,SW,223,2.0,2.0,100,0.01,,,0.28,,2013-03-01 19:02:00,
2013-03-01 14:11:00,33.0,33.0,-100.00,SW,223,2.0,2.0,100,0.01,,,0.28,,2013-03-01 19:11:00,
2013-03-01 14:21:00,34.0,34.0,-100.00,ESE,119,2.0,4.0,100,0.00,,,0.29,,2013-03-01 19:21:00,
2013-03-01 14:32:00,34.0,34.0,-100.00,East,96,3.0,4.0,100,0.01,,,0.29,,2013-03-01 19:32:00,
2013-03-01 14:42:00,34.0,34.0,-100.00,East,96,3.0,4.0,100,0.01,,,0.29,,2013-03-01 19:42:00,
2013-03-01 14:52:00,34.0,34.0,-100.00,East,82,4.0,7.0,100,0.03,,,0.30,,2013-03-01 19:52:00,
2013-03-01 15:01:00,34.0,34.0,-100.00,East,82,4.0,7.0,100,0.03,,,0.30,,2013-03-01 20:01:00,
2013-03-01 15:11:00,34.0,34.0,-100.00,East,82,4.0,7.0,100,0.03,,,0.30,,2013-03-01 20:11:00,
2013-03-01 15:21:00,33.0,32.0,-100.00,ESE,112,4.0,5.0,99,0.00,,,0.30,,2013-03-01 20:21:00,
2013-03-01 15:32:00,33.0,32.0,-100.00,ESE,112,4.0,5.0,99,0.00,,,0.30,,2013-03-01 20:32:00,
2013-03-01 15:42:00,33.0,33.0,-100.00,SSW,200,1.0,3.0,99,0.01,,,0.31,,2013-03-01 20:42:00,
2013-03-01 15:52:00,33.0,33.0,-100.00,SSW,200,1.0,3.0,99,0.01,,,0.31,,2013-03-01 20:52:00,
2013-03-01 16:02:00,35.0,34.0,-100.00,SSE,155,2.0,3.0,99,0.00,,,0.31,,2013-03-01 21:02:00,
2013-03-01 16:11:00,35.0,34.0,-100.00,SSE,155,2.0,3.0,99,0.00,,,0.31,,2013-03-01 21:11:00,
2013-03-01 16:21:00,34.0,33.0,-100.00,ESE,117,0.0,2.0,97,0.00,,,0.31,,2013-03-01 21:21:00,
2013-03-01 16:32:00,34.0,33.0,-100.00,ESE,117,0.0,2.0,97,0.00,,,0.31,,2013-03-01 21:32:00,
2013-03-01 16:42:00,34.0,33.0,-100.00,SSE,147,2.0,4.0,97,0.00,,,0.31,,2013-03-01 21:42:00,
2013-03-01 16:52:00,34.0,33.0,-100.00,SSE,147,2.0,4.0,97,0.00,,,0.31,,2013-03-01 21:52:00,
2013-03-01 17:01:00,34.0,32.0,-100.00,WSW,247,3.0,6.0,94,0.00,,,0.31,,2013-03-01 22:01:00,
2013-03-01 17:12:00,34.0,32.0,-100.00,WSW,247,3.0,6.0,94,0.00,,,0.31,,2013-03-01 22:12:00,
2013-03-01 17:22:00,34.0,32.0,-100.00,WSW,247,3.0,6.0,94,0.00,,,0.31,,2013-03-01 22:22:00,
2013-03-01 17:32:00,33.0,32.0,-100.00,WSW,244,1.0,2.0,97,0.00,,,0.31,,2013-03-01 22:32:00,
2013-03-01 17:42:00,32.0,32.0,-100.00,ESE,110,1.0,2.0,98,0.00,,,0.31,,2013-03-01 22:42:00,
2013-03-01 17:52:00,32.0,32.0,-100.00,ESE,110,1.0,2.0,98,0.00,,,0.31,,2013-03-01 22:52:00,
2013-03-01 18:01:00,33.0,32.0,-100.00,SE,126,1.0,2.0,99,0.00,,,0.31,,2013-03-01 23:01:00,
2013-03-01 18:11:00,33.0,32.0,-100.00,SE,126,1.0,2.0,99,0.00,,,0.31,,2013-03-01 23:11:00,
2013-03-01 18:21:00,33.0,32.0,-100.00,SSW,205,1.0,1.0,98,0.00,,,0.31,,2013-03-01 23:21:00,
2013-03-01 18:32:00,33.0,32.0,-100.00,SSW,205,1.0,1.0,98,0.00,,,0.31,,2013-03-01 23:32:00,
2013-03-01 18:42:00,32.0,32.0,-100.00,SW,234,2.0,3.0,98,0.06,,,0.31,,2013-03-01 23:42:00,
2013-03-01 18:52:00,32.0,32.0,-100.00,SW,234,2.0,3.0,98,0.06,,,0.31,,2013-03-01 23:52:00,
2013-03-01 19:02:00,32.0,31.0,-100.00,East,95,3.0,4.0,98,0.00,,,0.35,,2013-03-02 00:02:00,
2013-03-01 19:12:00,32.0,31.0,-100.00,East,95,3.0,4.0,98,0.00,,,0.35,,2013-03-02 00:12:00,
2013-03-01 19:22:00,31.0,31.0,-100.00,East,89,2.0,4.0,99,0.00,,,0.35,,2013-03-02 00:22:00,
2013-03-01 19:32:00,31.0,31.0,-100.00,East,89,2.0,4.0,99,0.00,,,0.35,,2013-03-02 00:32:00,
2013-03-01 19:42:00,31.0,31.0,-100.00,SE,143,2.0,2.0,99,0.00,,,0.36,,2013-03-02 00:42:00,
2013-03-01 19:52:00,31.0,31.0,-100.00,ESE,123,1.0,3.0,98,0.06,,,0.36,,2013-03-02 00:52:00,
2013-03-01 20:01:00,31.0,31.0,-100.00,ESE,123,1.0,3.0,98,0.06,,,0.36,,2013-03-02 01:01:00,
2013-03-01 20:11:00,31.0,31.0,-100.00,ESE,123,1.0,3.0,98,0.06,,,0.36,,2013-03-02 01:11:00,
2013-03-01 20:21:00,31.0,31.0,-100.00,East,93,2.0,3.0,98,0.00,,,0.37,,2013-03-02 01:21:00,
2013-03-01 20:32:00,31.0,31.0,-100.00,East,92,0.0,0.0,99,0.00,,,0.37,,2013-03-02 01:32:00,
2013-03-01 20:42:00,31.0,31.0,-100.00,East,92,0.0,0.0,99,0.00,,,0.37,,2013-03-02 01:42:00,
2013-03-01 20:52:00,31.0,31.0,-100.00,South,191,1.0,1.0,98,0.00,,,0.37,,2013-03-02 01:52:00,
2013-03-01 21:01:00,31.0,31.0,-100.00,South,191,1.0,1.0,98,0.00,,,0.37,,2013-03-02 02:01:00,
2013-03-01 21:11:00,31.0,31.0,-100.00,South,191,1.0,1.0,98,0.00,,,0.37,,2013-03-02 02:11:00,
2013-03-01 21:22:00,31.0,31.0,-100.00,WSW,246,1.0,2.0,99,0.11,,,0.38,,2013-03-02 02:22:00,
2013-03-01 21:32:00,31.0,31.0,-100.00,East,79,1.0,2.0,99,0.03,,,0.49,,2013-03-02 02:32:00,
2013-03-01 21:42:00,31.0,31.0,-100.00,East,79,1.0,2.0,99,0.03,,,0.49,,2013-03-02 02:42:00,
2013-03-01 21:52:00,31.0,31.0,-100.00,East,79,1.0,2.0,99,0.03,,,0.49,,2013-03-02 02:52:00,
2013-03-01 22:02:00,31.0,31.0,-100.00,East,85,3.0,5.0,99,0.00,,,0.49,,2013-03-02 03:02:00,
2013-03-01 22:11:00,31.0,31.0,-100.00,East,85,3.0,5.0,99,0.00,,,0.49,,2013-03-02 03:11:00,
2013-03-01 22:22:00,31.0,31.0,-100.00,SSW,208,0.0,2.0,99,0.00,,,0.49,,2013-03-02 03:22:00,
2013-03-01 22:32:00,31.0,31.0,-100.00,West,260,1.0,2.0,99,0.00,,,0.49,,2013-03-02 03:32:00,
2013-03-01 22:42:00,31.0,31.0,-100.00,West,260,1.0,2.0,99,0.00,,,0.49,,2013-03-02 03:42:00,
2013-03-01 22:53:00,31.0,31.0,-100.00,West,260,1.0,2.0,99,0.00,,,0.49,,2013-03-02 03:53:00,
2013-03-01 23:02:00,31.0,31.0,-100.00,South,174,0.0,1.0,100,0.00,,,0.49,,2013-03-02 04:02:00,
2013-03-01 23:12:00,31.0,31.0,-100.00,South,174,0.0,1.0,100,0.00,,,0.49,,2013-03-02 04:12:00,
2013-03-01 23:22:00,31.0,31.0,-100.00,ESE,103,0.0,1.0,100,0.00,,,0.48,,2013-03-02 04:22:00,
2013-03-01 23:32:00,31.0,31.0,-100.00,ESE,119,1.0,2.0,100,0.00,,,0.48,,2013-03-02 04:32:00,
2013-03-01 23:42:00,31.0,31.0,-100.00,ESE,119,1.0,2.0,100,0.00,,,0.48,,2013-03-02 04:42:00,
2013-03-01 23:52:00,31.0,31.0,-100.00,ESE,119,1.0,2.0,100,0.00,,,0.48,,2013-03-02 04:52:00,